Regional Weather Roundup
Issued by NWS

Home | Current Version | Previous Version | Text Only | Print | Product List | Glossary Off
Versions: 1 2 3 4 5 6 7 8 9 10 11 12 13 14 15 16 17 18 19 20 21 22 23 24 25 26 27 28 29 30 31 32 33 34 35 36 37 38 39 40 41 42 43 44 45 46 47 48 49 50

000
ASUS43 KBIS 260820
RWRND

NORTH DAKOTA REGIONAL WEATHER ROUNDUP
NATIONAL WEATHER SERVICE BISMARCK ND
200 AM CST MON JAN 26 2015

NOTE: "FAIR" INDICATES FEW OR NO CLOUDS BELOW 12,000 FEET WITH NO
SIGNIFICANT WEATHER AND/OR OBSTRUCTIONS TO VISIBILITY.


NDZ001>003-009>011-017-260900-
NORTHWEST NORTH DAKOTA

CITY           SKY/WX    TMP DP  RH WIND       PRES   REMARKS
WILLISTON      CLOUDY    38  33  82 SE5       29.87R
MINOT          MOCLDY    38  31  76 W14       29.75S
MINOT AFB      MOCLDY    37  36  93 NW20      29.74S
$$

NDZ018>021-031>035-040>046-260900-
SOUTHWEST NORTH DAKOTA

CITY           SKY/WX    TMP DP  RH WIND       PRES   REMARKS
BISMARCK       CLEAR     40  32  73 NW12      29.80R
DICKINSON      CLEAR     40  33  76 W14       29.85R
GARRISON         N/A     39  34  82 NW20      29.79R
HETTINGER ARPT CLEAR     38  32  79 W14       29.89R
$$

NDZ004>008-012>016-024-026-027-054-260900-
NORTHEAST NORTH DAKOTA

CITY           SKY/WX    TMP DP  RH WIND       PRES   REMARKS
GRAND FORKS    PTCLDY    28  25  88 S9        29.61F WCI  19
GRND FRKS AFB  PTCLDY    36  31  81 NW10      29.61F
DEVILS LAKE    MOCLDY    36  30  80 NW16      29.66R
$$

NDZ022-023-025-028>030-036>039-047>053-260900-
SOUTHEAST NORTH DAKOTA

CITY           SKY/WX    TMP DP  RH WIND       PRES   REMARKS
FARGO          MOCLDY    31  27  85 S12       29.70R
JAMESTOWN      MOCLDY    39  32  76 NW23G30   29.68R
$$



USA.gov is the U.S. government's official web portal to all federal, state and local government web resources and services.